Regional Weather Roundup
Issued by NWS Columbia, SC

Home | Current Version | Previous Version | Text Only | Print | Product List | Glossary On
Versions: 1 2 3 4 5 6 7 8 9 10 11 12 13 14 15 16 17 18 19 20 21 22 23 24 25 26 27
000
ASUS42 KCAE 261010
RWRCAE
REGIONAL WEATHER ROUNDUP
NATIONAL WEATHER SERVICE COLUMBIA SC
500 AM EST SUN FEB 26 2017

NOTE: "FAIR" INDICATES FEW OR NO CLOUDS BELOW 12,000 FEET WITH NO
SIGNIFICANT WEATHER AND/OR OBSTRUCTIONS TO VISIBILITY.

NOT ALL STATIONS ARE QUALITY CONTROLLED BY THE NATIONAL
WEATHER SERVICE. USE DATA WITH CAUTION...ESPECIALLY
DEWPOINT OBSERVATIONS.

SCZ001>056-GAZ040-063>065-077-261100-
...UPSTATE SOUTH CAROLINA...

CITY           SKY/WX    TMP DP  RH WIND       PRES   REMARKS
ANDERSON       CLEAR     38  19  46 W7        30.07R WCI  33
LIBERTY        SUNNY     27  21  77 CALM      30.05R
SPARTANBURG    CLEAR     37  16  41 NW7       30.06R WCI  32
CLEMSON        CLEAR     38  14  37 W5        30.07R WCI  34
GREENVILLE     CLEAR     37  19  48 N6        30.06R WCI  32
GREENWOOD      CLEAR     32  21  64 N3        30.09R
GREER          CLEAR     35  19  52 N3        30.05R
ROCK HILL      CLEAR     35  19  52 N6        30.07R WCI  30
CHESTER        SUNNY     37  14  38 NW5       30.07R WCI  34
LAURENS        SUNNY     34  23  64 CALM      30.07R


...CENTRAL SOUTH CAROLINA...

CITY           SKY/WX    TMP DP  RH WIND       PRES   REMARKS
COLUMBIA APT   CLEAR     41  26  55 NW3       30.07R
COLUMBIA OWENS CLEAR     46  22  38 N3        30.08R
MCENTIRE ANGB  CLEAR     39  22  50 CALM      30.07R
ORANGEBURG     CLEAR     46  24  42 NW7       30.07R
SUMTER SHAW    CLEAR     43  21  41 NW5       30.05R
AIKEN          FAIR      37  23  56 W5        30.10R WCI  34
BARNWELL       FAIR      45  25  45 W3        30.09R
MANNING        FAIR      41  27  56 MISG      30.07R
CAMDEN         FAIR      39  23  52 CALM      30.07R
LANCASTER      SUNNY     39  16  38 NW5       30.07R
WINNSBORO      SUNNY     36  27  69 CALM      30.06R


...EASTERN AND COASTAL SOUTH CAROLINA...

CITY           SKY/WX    TMP DP  RH WIND       PRES   REMARKS
MYRTLE BEACH   CLEAR     49  26  41 NW7       30.04R
N MYRTLE BCH   CLEAR     50  26  39 N7        30.02R
CONWAY         FAIR      45  27  49 CALM      30.04R
MARION         FAIR      43  23  45 NW5       30.05R
HARTSVILLE     FAIR      39  25  56 CALM      30.05R
FLORENCE       CLEAR     44  22  41 NW7       30.06R
DARLINGTON     CLEAR     41  22  46 NW6       30.06R
CHARLESTON APT CLEAR     49  23  36 NW8       30.06R
MOUNT PLEASANT LGT RAIN  50  28  43 NW6       30.06R
WALTERBORO     SUNNY     45  25  45 NW3       30.08R
BEAUFORT       CLEAR     48  27  44 NW6       30.08R


...EASTERN GEORGIA...

CITY           SKY/WX    TMP DP  RH WIND       PRES   REMARKS
AUGUSTA BUSH F CLEAR     43  24  47 W5        30.08R
AUGUSTA DANIEL CLEAR     45  19  35 NW9       30.08R
THOMSON        CLEAR     40  28  60 CALM      30.13R
WASHINGTON     FAIR      43  27  52 NW7       30.09R
CLAXTON        FAIR      42  42 100 CALM      30.10R
SYLVANIA       SUNNY    N/A N/A N/A NW3       30.10R
STATESBORO     CLEAR     41  32  70 CALM      30.09R
SAVANNAH       CLEAR     46  28  49 W5        30.09R


...SOUTHERN NORTH CAROLINA...

CITY           SKY/WX    TMP DP  RH WIND       PRES   REMARKS
CHARLOTTE      PTCLDY    36  18  48 NW6       30.06R WCI  31
MONROE         CLEAR     37  19  48 NW3       30.04R
WADESBORO      SUNNY     39  15  38 CALM      30.06R
ROCKINGHAM     SUNNY     40  21  46 NW3       30.04R
RUTHERFORDTON  CLEAR     30  20  67 N3        30.06S
ASHEVILLE      CLEAR     30  16  56 N13       30.05R WCI  20

$$




USA.gov is the U.S. government's official web portal to all federal, state and local government web resources and services.